Weather in Tomuzlovskoye

Russia / Stavropol Krai     44°41′47″N   43°51′40″E
temp.,
°C
wind,
m/s
gust,
m/s
humid.,
%
clouds,
%
prec.,
mm/h
press.,
hPa
HPBL,
m
18 april, sun
sun1800:00+10n2384100 0.1 1022154
03:00+9ene2289100 0.1 102159
06:00+10e3695100 0.1 1020250
09:00+10ese4696100 3.8 1019361
12:00+14ese4678100 1.5 1017618
15:00+18se4463100 1.5 10171226
18:00+16ene367686 0.0 1017147
21:00+13ese378892 0.3 1017192
19 april, mon
mon1900:00+11se3494100 0.0 101776
03:00+11se2287100 0.0 101638
06:00+11se2392100 1.1 101669
09:00+13w1282100 1.6 1017136
12:00+16ese3382100 1.1 1016302
15:00+17se467099 1.2 1015511
18:00+18ese3570100 0.0 101489
21:00+14nne4688100 0.0 1016172
20 april, tue
tue2000:00+12ene4892100 0.8 1014213
03:00+11ese31088100 0.8 1013269
06:00+11ese71576100 0.0 1009402
09:00+15se5968100 0.0 1009482
12:00+19ese71262100 0.0 1006598
15:00+22se5855100 0.1 1005562
18:00+19s4773100 0.5 1007145
21:00+16nnw4687100 1.3 100894
21 april, wed
wed2100:00+14nw71182100 1.4 1012635
03:00+12nw51273100 1.5 1014561
06:00+12nnw3983100 0.5 1016635
09:00+10nnw4789100 1.6 1018617
12:00+10nw41088100 1.3 1020542
15:00+11sw1283100 1.6 1020274
18:00+10sw2389100 0.1 1022116
21:00+10ssw2294100 1.3 102394
22 april, thu
thu2200:00+10wsw2294100 1.0 102363
03:00+10wsw2292100 1.2 102235
06:00+10wnw1195100 1.1 102329
09:00+10nne1294100 2.3 1023145
12:00+10n1291100 0.1 1023170
15:00+11nnw0189100 0.4 1023134
18:00+11wsw1186100 0.1 102319
21:00+10wsw2287100 0.1 102336